Date String (YYYY-MM-DD hh:mm:ss) UTC,Instrument flags,absolute air pressure of the measurement (hPa),sample flow rate (lpm),inlet stack bypass flow (lpm),air temperature of the measurement (°C),ambient temperature measured by the external sensor (°C),aerosol sample conditioner tube jacket temperature (°C),OPC LED temperature (°C),internal box temperature (°C),relative humidity of the measurement (%),span deviation,mass concentration of particles derived from Lorenz-Mie calculation of OPC scattering (μg/m³),mass concentration of particles derived from Lorenz-Mie calculation of OPC scattering (μg/m³),mass concentration of particles derived from Lorenz-Mie calculation of OPC scattering (μg/m³)
DateTimeUTC,F1_M11,P_M11,Q1_M11,Q2_M11,T1_M11,T2_M11,T3_M11,T4_M11,T5_M11,U1_M11,ZSPAN_M11,X2_M11,X0_M11,X1_M11
2024-05-03 05:00:00,SystemResetWarning,0827.1,5.01,000.00,025.2,024.4,000.0,033.7,026.9,016.0,0000.0,0003.94,0010.59,0002.56
2024-05-03 05:01:00,SystemResetWarning,0827.1,5.00,000.00,025.2,024.4,000.0,033.7,026.9,016.1,0000.0,0003.90,0011.10,0002.55
2024-05-03 05:02:00,SystemResetWarning,0827.1,4.99,000.00,025.2,024.4,000.0,033.6,026.9,016.0,0000.0,0003.84,0012.07,0002.52
2024-05-03 05:03:00,SystemResetWarning,0827.1,5.00,000.00,025.2,024.5,000.0,033.6,026.9,016.0,0000.0,0003.88,0011.68,0002.53
2024-05-03 05:04:00,SystemResetWarning,0827.1,5.00,000.00,025.2,024.5,000.0,033.6,026.9,016.0,0000.0,0003.92,0011.24,0002.54
2024-05-03 05:05:00,SystemResetWarning,0827.1,5.00,000.00,025.2,024.5,000.0,033.6,026.9,016.0,0000.0,0003.89,0010.83,0002.51
2024-05-03 05:06:00,SystemResetWarning,0827.1,5.00,000.00,025.2,024.5,000.0,033.6,026.9,016.0,0000.0,0003.89,0010.91,0002.49
2024-05-03 05:07:00,SystemResetWarning,0827.1,5.01,000.00,025.2,024.5,000.0,033.7,027.0,015.9,0000.0,0003.88,0010.96,0002.47
2024-05-03 05:08:00,SystemResetWarning,0827.1,5.00,000.00,025.2,024.5,000.0,033.7,027.0,015.9,0000.0,0003.87,0011.24,0002.43
2024-05-03 05:09:00,SystemResetWarning,0827.1,5.00,000.00,025.2,024.5,000.0,033.7,027.0,015.8,0000.0,0003.84,0012.79,0002.42
2024-05-03 05:10:00,SystemResetWarning,0827.1,5.00,000.00,025.2,024.5,000.0,033.6,027.0,015.8,0000.0,0003.81,0013.22,0002.39
2024-05-03 05:11:00,SystemResetWarning,0827.1,5.00,000.00,025.2,024.5,000.0,033.7,027.0,015.9,0000.0,0003.84,0013.68,0002.38
2024-05-03 05:12:00,SystemResetWarning,0827.1,4.99,000.00,025.2,024.5,000.0,033.7,027.0,015.9,0000.0,0003.86,0013.10,0002.36
2024-05-03 05:13:00,SystemResetWarning,0827.1,5.00,000.00,025.2,024.5,000.0,033.7,027.0,015.8,0000.0,0003.87,0012.02,0002.35
2024-05-03 05:14:00,SystemResetWarning,0827.2,5.00,000.00,025.2,024.5,000.0,033.7,027.0,015.8,0000.0,0003.85,0011.87,0002.33
2024-05-03 05:15:00,SystemResetWarning,0827.2,5.02,000.00,025.2,024.6,000.0,033.7,027.0,015.8,0000.0,0003.81,0012.14,0002.30
2024-05-03 05:16:00,SystemResetWarning,0827.1,5.00,000.00,025.2,024.5,000.0,033.7,027.0,015.8,0000.0,0003.81,0012.75,0002.30
2024-05-03 05:17:00,SystemResetWarning,0827.1,4.99,000.00,025.2,024.5,000.0,033.7,027.0,015.7,0000.0,0003.82,0012.76,0002.28
2024-05-03 05:18:00,SystemResetWarning,0827.1,5.00,000.00,025.2,024.5,000.0,033.7,027.0,015.6,0000.0,0003.77,0013.64,0002.28
2024-05-03 05:19:00,SystemResetWarning,0827.1,5.00,000.00,025.2,024.5,000.0,033.7,027.0,015.6,0000.0,0003.76,0013.80,0002.28
2024-05-03 05:20:00,SystemResetWarning,0827.1,5.00,000.00,025.2,024.5,000.0,033.7,027.0,015.7,0000.0,0003.81,0012.32,0002.28
2024-05-03 05:21:00,SystemResetWarning,0827.0,5.01,000.00,025.2,024.5,000.0,033.7,027.0,015.6,0000.0,0003.83,0011.91,0002.27
2024-05-03 05:22:00,SystemResetWarning,0827.1,5.00,000.00,025.2,024.5,000.0,033.7,027.0,015.5,0000.0,0003.81,0011.24,0002.27
2024-05-03 05:23:00,SystemResetWarning,0827.1,5.00,000.00,025.2,024.5,000.0,033.7,027.0,015.5,0000.0,0003.79,0011.20,0002.26
2024-05-03 05:24:00,SystemResetWarning,0827.1,4.99,000.00,025.2,024.5,000.0,033.7,027.1,015.6,0000.0,0003.78,0011.95,0002.26
2024-05-03 05:25:00,SystemResetWarning,0827.1,4.99,000.00,025.2,024.5,000.0,033.7,027.1,015.6,0000.0,0003.78,0012.01,0002.25
2024-05-03 05:26:00,SystemResetWarning,0827.1,4.99,000.00,025.2,024.5,000.0,033.7,027.1,015.6,0000.0,0003.76,0011.40,0002.24
2024-05-03 05:27:00,SystemResetWarning,0827.1,5.02,000.00,025.2,024.5,000.0,033.7,027.0,015.6,0000.0,0003.77,0011.05,0002.25
2024-05-03 05:28:00,SystemResetWarning,0827.1,5.00,000.00,025.2,024.5,000.0,033.7,027.0,015.4,0000.0,0003.72,0011.47,0002.26
2024-05-03 05:29:00,SystemResetWarning,0827.1,4.99,000.00,025.2,024.5,000.0,033.7,027.1,015.5,0000.0,0003.72,0010.67,0002.25
2024-05-03 05:30:00,SystemResetWarning,0827.1,4.99,000.00,025.2,024.5,000.0,033.7,027.0,015.7,0000.0,0003.73,0010.62,0002.26
2024-05-03 05:31:00,SystemResetWarning,0827.1,5.00,000.00,025.2,024.5,000.0,033.7,027.0,015.6,0000.0,0003.67,0010.97,0002.25
2024-05-03 05:32:00,SystemResetWarning,0827.1,5.01,000.00,025.2,024.5,000.0,033.7,027.0,015.5,0000.0,0003.68,0011.20,0002.26
2024-05-03 05:33:00,SystemResetWarning,0827.1,5.00,000.00,025.2,024.5,000.0,033.7,027.1,015.1,0000.0,0003.68,0012.11,0002.26
2024-05-03 05:34:00,SystemResetWarning,0827.1,4.99,000.00,025.2,024.5,000.0,033.7,027.1,014.9,0000.0,0003.66,0012.16,0002.26
2024-05-03 05:35:00,SystemResetWarning,0827.1,5.01,000.00,025.2,024.5,000.0,033.7,027.1,014.8,0000.0,0003.70,0011.54,0002.28
2024-05-03 05:36:00,SystemResetWarning,0827.1,5.00,000.00,025.2,024.5,000.0,033.7,027.1,014.6,0000.0,0003.72,0011.72,0002.31
2024-05-03 05:37:00,SystemResetWarning,0827.0,5.00,000.00,025.3,024.5,000.0,033.7,027.1,014.6,0000.0,0003.75,0012.09,0002.35
2024-05-03 05:38:00,SystemResetWarning,0827.1,4.99,000.00,025.3,024.5,000.0,033.7,027.1,014.5,0000.0,0003.80,0011.93,0002.40
2024-05-03 05:39:00,SystemResetWarning,0827.1,5.00,000.00,025.3,024.5,000.0,033.7,027.1,014.6,0000.0,0003.81,0011.54,0002.43
2024-05-03 05:40:00,SystemResetWarning,0827.1,5.00,000.00,025.3,024.5,000.0,033.7,027.1,014.5,0000.0,0003.77,0011.58,0002.46
2024-05-03 05:41:00,SystemResetWarning,0827.1,5.01,000.00,025.3,024.6,000.0,033.7,027.1,014.5,0000.0,0003.74,0011.11,0002.49
2024-05-03 05:42:00,SystemResetWarning,0827.1,5.01,000.00,025.3,024.6,000.0,033.7,027.1,014.2,0000.0,0003.78,0010.61,0002.54
2024-05-03 05:43:00,SystemResetWarning,0827.0,5.00,000.00,025.3,024.6,000.0,033.7,027.1,014.5,0000.0,0003.80,0010.94,0002.59
2024-05-03 05:44:00,SystemResetWarning,0827.0,5.00,000.00,025.3,024.6,000.0,033.7,027.1,014.5,0000.0,0003.80,0010.33,0002.62
2024-05-03 05:45:00,SystemResetWarning,0827.1,4.99,000.00,025.3,024.6,000.0,033.7,027.1,014.6,0000.0,0003.84,0011.32,0002.66
2024-05-03 05:46:00,SystemResetWarning,0827.1,5.00,000.00,025.3,024.6,000.0,033.7,027.1,014.6,0000.0,0003.83,0011.42,0002.68
2024-05-03 05:47:00,SystemResetWarning,0827.1,5.00,000.00,025.3,024.6,000.0,033.7,027.1,014.6,0000.0,0003.83,0011.09,0002.70
2024-05-03 05:48:00,SystemResetWarning,0827.1,5.00,000.00,025.3,024.6,000.0,033.8,027.1,014.6,0000.0,0003.81,0010.65,0002.69
2024-05-03 05:49:00,SystemResetWarning,0827.1,5.01,000.00,025.3,024.6,000.0,033.7,027.1,014.6,0000.0,0003.77,0010.62,0002.65
2024-05-03 05:50:00,SystemResetWarning,0827.1,5.00,000.00,025.3,024.6,000.0,033.7,027.0,014.7,0000.0,0003.79,0010.61,0002.64
2024-05-03 05:51:00,SystemResetWarning,0827.1,5.00,000.00,025.3,024.5,000.0,033.7,027.0,014.6,0000.0,0003.84,0011.23,0002.63
2024-05-03 05:52:00,SystemResetWarning,0827.1,5.00,000.00,025.3,024.5,000.0,033.7,027.0,014.7,0000.0,0003.91,0011.67,0002.63
2024-05-03 05:53:00,SystemResetWarning,0827.1,5.00,000.00,025.3,024.5,000.0,033.7,027.1,014.8,0000.0,0003.94,0011.96,0002.62
2024-05-03 05:54:00,SystemResetWarning,0827.1,4.99,000.00,025.3,024.6,000.0,033.7,027.1,014.8,0000.0,0003.92,0011.49,0002.59
2024-05-03 05:55:00,SystemResetWarning,0827.1,5.00,000.00,025.3,024.6,000.0,033.7,027.1,014.7,0000.0,0003.96,0011.27,0002.59
2024-05-03 05:56:00,SystemResetWarning,0827.1,4.99,000.00,025.3,024.6,000.0,033.7,027.1,014.7,0000.0,0003.93,0010.13,0002.57
2024-05-03 05:57:00,SystemResetWarning,0827.1,5.00,000.00,025.3,024.6,000.0,033.7,027.1,014.8,0000.0,0003.97,0010.32,0002.57
2024-05-03 05:58:00,SystemResetWarning,0827.1,5.01,000.00,025.3,024.6,000.0,033.7,027.1,014.6,0000.0,0004.00,0010.42,0002.56
2024-05-03 05:59:00,SystemResetWarning,0827.1,5.01,000.00,025.3,024.6,000.0,033.7,027.1,014.6,0000.0,0004.06,0010.55,0002.57
